Home > Weather > Chico > Past weeks

Flag for USA Weather for the Past 2 Weeks in Chico, California, USA

Now
57 °F

Clear.


Feels Like: 55 °F
Forecast: 53 / 78 °F
Wind: 9 mph from North

Location: Chico Municipal

Current Time: Apr 29, 2016 at 2:01:21 AM

Latest Report: Apr 29, 2016 at 1:15 AM


Visibility: 10 mi

Pressure: 29.93 "Hg

Humidity: 51%

Dew Point: 39 °F

Location of ChicoLocation

Historic Weather in Chico — Graph

°F

Chico Temperature Yesterday

Maximum temperature yesterday: 79 °F (at 3:47 PM)
Minimum temperature yesterday: 50 °F (at 2:35 AM)
Average temperature yesterday: 63 °F

High & Low Weather Summary for the Past Weeks

 TemperatureHumidityPressure
High86 °F (Apr 18, 4:55 PM)100% (Apr 22, 4:55 AM)30.22 "Hg (Apr 22, 4:55 AM)
Low41 °F (Apr 15, 6:55 AM)12% (Apr 20, 3:50 PM)29.76 "Hg (Apr 22, 5:35 AM)
Average62 °F50%29.99 "Hg
* Reported Apr 14 12:15 AM — Apr 29 12:35 AM, Chico, Weather by CustomWeather, © 2016

Note: Actual official high and low records may vary slightly from our data, if they occured in-between our weather recording intervals... More about our weather records

Advertising

Chico Weather History for the Previous 24 Hours

Scroll right to see more
 ConditionsComfort  
Time TempWeatherWind HumidityBarometerVisibility
12:35 AM
Fri, Apr 29
57 °FClear.No wind51%29.92 "Hg10 mi
12:15 AM59 °FClear.No wind48%29.92 "Hg10 mi
11:55 PM
Thu, Apr 28
61 °FClear.No wind45%29.92 "Hg10 mi
11:35 PM57 °FClear.8 mph55%29.91 "Hg10 mi
11:15 PM59 °FClear.7 mph48%29.91 "Hg10 mi
10:55 PM59 °FClear.9 mph48%29.90 "Hg10 mi
10:35 PM63 °FClear.No wind42%29.90 "Hg10 mi
9:55 PM64 °FClear.7 mph40%29.89 "Hg10 mi
9:35 PM68 °FClear.No wind30%29.88 "Hg10 mi
9:15 PM70 °FClear.7 mph29%29.88 "Hg10 mi
8:55 PM72 °FSunny.3 mph27%29.87 "Hg10 mi
8:15 PM70 °FSunny.3 mph33%29.85 "Hg10 mi
7:15 PM77 °FSunny.15 mph22%29.83 "Hg10 mi
6:55 PM77 °FSunny.16 mph22%29.83 "Hg10 mi
6:15 PM79 °FSunny.16 mph21%29.83 "Hg10 mi
5:55 PM79 °FSunny.20 mph21%29.83 "Hg10 mi
4:46 PM79 °FPassing clouds.14 mph20%29.83 "Hg80 mi
3:47 PM79 °FPassing clouds.14 mph21%29.84 "Hg80 mi
2:50 PM77 °FPassing clouds.14 mph22%29.87 "Hg80 mi
1:47 PM75 °FPassing clouds.14 mph25%29.88 "Hg80 mi
12:47 PM73 °FPassing clouds.16 mph27%29.90 "Hg80 mi
11:50 AM72 °FPassing clouds.18 mph29%29.90 "Hg80 mi
10:58 AM70 °FPassing clouds.18 mph31%29.89 "Hg80 mi
9:56 AM66 °FPassing clouds.18 mph37%29.89 "Hg80 mi
8:51 AM63 °FSunny.18 mph45%29.90 "Hg10 mi
7:50 AM54 °FPassing clouds.9 mph67%29.90 "Hg80 mi
6:55 AM50 °FClear.12 mph71%29.90 "Hg80 mi
5:35 AM52 °FClear.13 mph67%29.87 "Hg10 mi
5:15 AM52 °FClear.16 mph67%29.87 "Hg10 mi
4:35 AM54 °FClear.12 mph63%29.87 "Hg10 mi
4:15 AM52 °FClear.8 mph72%29.86 "Hg10 mi
3:55 AM54 °FClear.10 mph67%29.86 "Hg10 mi
3:35 AM54 °FClear.9 mph67%29.86 "Hg10 mi
3:15 AM50 °FClear.8 mph76%29.86 "Hg10 mi
2:55 AM50 °FClear.6 mph76%29.86 "Hg10 mi
2:35 AM50 °FClear.3 mph76%29.87 "Hg10 mi
2:15 AM54 °FClear.No wind72%29.87 "Hg10 mi
Weather by CustomWeather, © 2016

See weather overviewHow to use our weather pages